This is the latest recevied weather packets stored in our database for station/object WA1NHP. If no packets are shown the sender has not sent any weather packets the latest 10 day(s).
| Time | Temp. | Humidity | Pressure | Rain* | Wind** | Luminosity | Snow |
|---|---|---|---|---|---|---|---|
| 1777814044 | 5° C | 75% | 1023.9 hPa | 0 mm | - | 179 W/m² | - |
| 1777813444 | 5° C | 75% | 1023.9 hPa | 0 mm | - | 163 W/m² | - |
| 1777812843 | 5° C | 76% | 1023.9 hPa | 0 mm | - | 123 W/m² | - |
| 1777812243 | 5° C | 77% | 1023.9 hPa | 0 mm | - | 204 W/m² | - |
| 1777811644 | 5° C | 79% | 1023.9 hPa | 0 mm | - | 192 W/m² | - |
| 1777811044 | 4.44° C | 81% | 1023.9 hPa | 0 mm | - | 192 W/m² | - |
| 1777810444 | 4.44° C | 81% | 1023.9 hPa | 0 mm | - | 114 W/m² | - |
| 1777809844 | 3.89° C | 82% | 1023.9 hPa | 0 mm | - | 102 W/m² | - |
| 1777809244 | 3.89° C | 82% | 1023.9 hPa | 0 mm | - | 88 W/m² | - |
| 1777808644 | 3.89° C | 83% | 1023.9 hPa | 0 mm | - | 84 W/m² | - |
| 1777808044 | 3.89° C | 84% | 1023.9 hPa | 0 mm | - | 72 W/m² | - |
| 1777807444 | 3.33° C | 85% | 1023.9 hPa | 0 mm | - | 65 W/m² | - |
| 1777806843 | 3.33° C | 86% | 1023.9 hPa | 0 mm | - | 58 W/m² | - |
| 1777806244 | 2.78° C | 86% | 1023.9 hPa | 0 mm | - | 35 W/m² | - |
| 1777805644 | 2.78° C | 86% | 1023.9 hPa | 0 mm | - | 39 W/m² | - |
| 1777805044 | 2.78° C | 86% | 1023.9 hPa | 0 mm | - | 23 W/m² | - |
| 1777804444 | 2.78° C | 87% | 1023.9 hPa | 0 mm | - | 19 W/m² | - |
| 1777803844 | 2.22° C | 89% | 1023.9 hPa | 0 mm | - | 14 W/m² | - |
| 1777803244 | 2.22° C | 90% | 1023.9 hPa | 0 mm | - | 7 W/m² | - |
| 1777802643 | 1.67° C | 91% | 1023.9 hPa | 0 mm | - | 0 W/m² | - |
| 1777802044 | 1.11° C | 91% | 1023.9 hPa | 0 mm | - | 0 W/m² | - |
| 1777801444 | 1.11° C | 91% | 1023.9 hPa | 0 mm | - | 0 W/m² | - |
| 1777800844 | 1.11° C | 91% | 1023.9 hPa | 0 mm | - | 0 W/m² | - |
| 1777800244 | 0.56° C | 91% | 1023.9 hPa | 0 mm | - | 0 W/m² | - |
| 1777799644 | 0.56° C | 90% | 1023.9 hPa | 0 mm | - | 0 W/m² | - |
* Rain latest hour (hover to see other rain measurements)
** Current wind speed in m/s (hover to see current wind gust speed)